www.pogodaiklimat.ru

Погода и климат >> Архив погоды >> Россия >> Астраханская область >> Астрахань


АРХИВ ПОГОДЫ в Астрахани

Время (UTC), дата Ветер
(напр.,м/с)
 
Видим.   Явления Облачность Т
(С)
Тd
(С)
f
(%)
Тe
(С)
Тes
(С)
Комфортность P
(гПа)
Po
(гПа)
Тmin
(С)
Tmax
(С)
R
(мм)
R24
(мм)
S
(см)
09 10.12 В 3 10 км 4/0
[Ac trans Ci fib]
+5.8 +1.6 74 +3 +5 тепло 1025.1 1027.7
12 10.12 В 2 10 км 6/3 1000 м
[Sc Ci fib]
+6.1 +1.6 73 +4 +4 тепло 1024.6 1027.2
15 10.12 В 2 10 км ясно +1.1 -1.5 83 -2 -2 по сезону 1024.2 1026.9 +6.6
18 10.12 СВ 2 4000 м дымка 9/6 1000 м
[Sc Ac trans]
-0.3 -1.2 94 -4 -4 по сезону 1023.7 1026.4
21 10.12 В 2 4000 м дымка 10/10 300 м
[St]
+1.4 +0.5 94 -2 -2 по сезону 1022.6 1025.3
00 11.12 В 2 10 км 9/9 600 м
[Sc]
+2.1 -0.2 85 -1 -1 тепло 1021.9 1024.6
03 11.12 СВ 2 10 км 10/10 600 м
[Sc]
+2.4 -0.5 81 -1 -1 тепло 1022.0 1024.6 -0.5
06 11.12 В 3 10 км 9/9 1000 м
[Sc]
+3.3 +0.2 80 -1 -0 по сезону 1023.7 1026.4
09 11.12 В 3 10 км 9/9 1000 м
[Sc]
+4.6 +0.4 74 +1 +1 тепло 1024.6 1027.2
12 11.12 В 1 10 км 10/0
[As op]
+4.8 +1.2 77 +4 +4 тепло 1025.5 1028.1
15 11.12 В 1 10 км слабый дождь 10/10 300 м
[Frnb Ns]
+3.8 +1.7 86 +2 +2 тепло 1027.0 1029.6 +4.8 0.0
18 11.12 З 1 2000 м в посл. час морось {дождь} 10/10 300 м
[St]
+3.6 +2.6 93 +2 +2 тепло 1027.9 1030.6
21 11.12 штиль 0 4000 м дымка 9/6 600 м
[Sc Ac trans]
+2.9 +2.1 94 +2 +2 тепло 1028.1 1030.8
00 12.12 штиль 0 500 м туман ?/? +1.6 +1.2 97 0 0 тепло 1028.0 1030.6
03 12.12 ЮЗ 1 2000 м дымка 10/0
[As op]
+0.5 +0.3 99 -2 -2 по сезону 1028.3 1030.9 +0.2 0.3
06 12.12 штиль 0 200 м туман ?/? +0.8 +0.5 98 -1 -1 тепло 1029.0 1031.7
09 12.12 Ю 2 10 км {туман} 9/9 1000 м
[Sc]
+5.3 +0.8 73 +3 +3 тепло 1027.9 1030.6
12 12.12 ЮЗ 1 10 км {туман} 9/9 1000 м
[Sc]
+6.1 -0.1 64 +5 +5 тепло 1028.5 1031.1
15 12.12 В 1 10 км 10/0
[Ac As]
+4.4 +0.3 75 +3 +3 тепло 1029.2 1031.9 +7.3
18 12.12 В 1 10 км 8/0
[Ac trans]
+2.8 +0.2 83 +1 +1 тепло 1028.9 1031.6
21 12.12 В 1 4000 м дымка 4/0
[Ac trans]
+1.5 +0.5 93 -0 -0 тепло 1028.7 1031.4
00 13.12 В 2 500 м туман ?/? +0.6 +0.2 97 -3 -3 по сезону 1028.5 1031.2
03 13.12 В 2 2000 м дымка {туман} 10/10 100 м
[St]
+0.6 +0.2 97 -3 -3 по сезону 1028.1 1030.8 +0.4
06 13.12 В 2 4000 м дымка {туман} 10/10 300 м
[St]
+1.3 +0.8 96 -2 -2 по сезону 1028.3 1031.0
09 13.12 В 2 2000 м в посл. час туман 10/10 300 м
[St]
+5.0 +4.4 96 +2 +2 тепло 1027.8 1030.5
12 13.12 ЮВ 3 10 км {туман} 9/9 600 м
[Cb cap]
+7.9 +3.8 75 +5 +5 тепло 1027.1 1029.7
15 13.12 В 2 4000 м дымка 9/4 1000 м
[Sc Ac trans]
+4.4 +2.6 88 +2 +2 тепло 1027.9 1030.5 +8.0
18 13.12 В 3 4000 м дымка 9/6 600 м
[Sc Ac trans]
+3.4 +1.8 89 -1 -1 по сезону 1028.2 1030.9
21 13.12 В 3 4000 м дымка 9/9 1000 м
[Sc]
+1.2 -0.8 87 -3 -3 по сезону 1028.1 1030.8
00 14.12 В 2 4000 м дымка ясно -1.2 -1.9 95 -5 -5 по сезону 1027.7 1030.4
03 14.12 В 3 4000 м дымка 6/6 300 м
[St]
-1.4 -2.1 95 -7 -7 по сезону 1028.1 1030.8 -1.4
06 14.12 В 5 4000 м дымка 9/8 600 м
[Cb cap Ac trans]
-0.4 -1.8 90 -7 -7 по сезону 1028.8 1031.5 -1.7
09 14.12 В 4
{10}
10 км 9/0
[Ac trans Ci fib]
+2.1 -3.7 65 -2 -1 по сезону 1027.9 1030.6
12 14.12 В 5
{10}
10 км 9/0
[Ac trans Ci fib]
0.0 -5.4 67 -6 -6 по сезону 1027.0 1029.7
15 14.12 В 4
{10}
10 км 3/0
[Ac trans]
-2.2 -4.7 83 -8 -8 прохладно 1026.8 1029.5 +2.4
18 14.12 В 3
{11}
10 км 1/0
[Ac trans]
-2.8 -4.9 85 -8 -8 по сезону 1026.3 1029.0
21 14.12 В 2 4000 м дымка ясно -3.0 -4.5 89 -7 -7 по сезону 1025.8 1028.5
00 15.12 В 7
{10}
4000 м дымка 10/0
[As trans]
-1.5 -2.9 90 -9 -9 по сезону 1025.3 1028.0
03 15.12 В 4
{10}
10 км 10/0
[As trans]
-1.1 -3.5 84 -7 -7 по сезону 1026.1 1028.8 -3.0
06 15.12 В 3 10 км 10/8 300 м
[Frnb As op]
-0.5 -2.6 86 -5 -5 по сезону 1027.0 1029.7
09 15.12 В 4 10 км 9/9 600 м
[Sc]
+0.5 -2.4 81 -5 -5 по сезону 1026.3 1029.0
12 15.12 В 3
{10}
10 км 8/0
[Ac trans Ci sp]
+1.6 -3.4 69 -2 -2 по сезону 1026.1 1028.8
15 15.12 В 2 4000 м дымка 6/0
[Ac trans Ci sp]
-2.3 -4.3 86 -6 -6 по сезону 1026.7 1029.4 +2.3
18 15.12 СВ 2 4000 м дымка 3/0
[Ac trans]
-3.0 -4.1 92 -7 -7 по сезону 1026.7 1029.4
21 15.12 В 2 4000 м дымка 9/9 600 м
[Sc]
-2.3 -3.9 89 -6 -6 по сезону 1027.5 1030.2
00 16.12 В 3 4000 м дымка 10/10 600 м
[Sc]
-1.6 -3.4 88 -7 -7 по сезону 1027.1 1029.8
03 16.12 В 2 4000 м дымка 10/8 300 м
[Frnb As op]
-1.0 -3.1 86 -5 -5 по сезону 1027.9 1030.6 -3.1
06 16.12 В 3 10 км 10/0
[As op]
-0.5 -3.1 83 -5 -5 по сезону 1029.0 1031.8
09 16.12 В 3 10 км 10/4 1000 м
[Sc Ac As]
+1.6 -2.6 74 -3 -2 по сезону 1028.1 1030.7
12 16.12 В 2 10 км 10/8 600 м
[Sc Ac As]
+2.6 -2.8 68 -0 -0 по сезону 1028.4 1031.1
15 16.12 В 2 10 км ясно -2.0 -4.3 84 -6 -6 по сезону 1029.6 1032.3 +2.9
18 16.12 В 2 4000 м дымка 9/9 600 м
[Sc]
-2.2 -3.3 92 -6 -6 по сезону 1029.6 1032.3
21 16.12 В 2 4000 м дымка 3/0
[Ci fib]
-2.2 -3.3 92 -6 -6 по сезону 1029.7 1032.4
00 17.12 В 2 4000 м дымка 4/0
[Ci fib]
-3.1 -4.0 93 -7 -7 по сезону 1029.0 1031.7
03 17.12 СВ 2 4000 м дымка ясно -3.6 -4.5 93 -8 -8 по сезону 1029.6 1032.3 -3.8
06 17.12 В 2 4000 м дымка 9/0
[Ac trans Ci fib]
-2.2 -3.7 89 -6 -6 по сезону 1030.6 1033.3

 

Местоположение метеостанции Астрахань (Астраханская область, Россия): широта 46.28 долгота 47.98 высота над уровнем моря -21 м.

В архиве по умолчанию представлена погода в Астрахани за последнюю неделю. Архивные данные за месяц целиком и за предыдущие месяцы, начиная с января 2011 года, Вы можете получить, выбрав интересующий диапазон дат из раскрывающегося списка и нажав кнопку "Ввод!".

Внимание! Время в таблицах - всемирное. Для получения местного времени необходимо прибавить поправку, которая в Астрахани равна 4 ч.

Смотрите также архив погоды в соседних городах и на ближайших метеорологических станциях:

Погода в Зеленге (Астраханская область, Россия) (50 км)
Погода в Досанге (Астраханская область, Россия) (71 км)
Погода в Лимане (Астраханская область, Россия) (79 км)
Погода в Ганюшкино (Атырауская область, Казахстан) (105 км)
Погода в Лагани (Калмыкия, Россия) (109 км)
Погода в Харабали (Астраханская область, Россия) (136 км)
Погода в Утте (Калмыкия, Россия) (151 км)
Погода в Юсте (Калмыкия, Россия) (158 км)
Погода в Исатай (Атырауская область, Казахстан) (170 км)
Погода в Артезиане (Калмыкия, Россия) (177 км)

Пояснения к столбцам:

Ветер - указаны скорость ветра в м/с - средняя за 10 мин, порывы в срок и между сроками (в фигурных скобках) и направление, откуда дует ветер: С - северный, СВ - северо-восточный, В - восточный, ЮВ - юго-восточный, Ю - южный, ЮЗ - юго-западный, З - западный, СЗ - северо-западный.
Видимость - горизонтальная дальность видимости в метрах или километрах. При видимости от 1 до 10 км при отсутствии осадков обычно наблюдается дымка, при ухудшении видимости до 1 км и менее - туман. В сухую погоду видимость может ухудшаться дымом, пылью или мглою.
Явления - указаны атмосферные явления, наблюдавшиеся в срок или в последний час перед сроком; фигурными скобками обозначены явления, наблюдавшиеся между сроками (за 1-3 часа до срока); квадратными скобками обозначены град или гололедные отложения с указанием их диаметра в мм.
Облачность - указаны через наклонную черту общая и нижняя облачность в баллах и высота нижней границы облаков в метрах; квадратными скобками обозначены формы облаков: Ci - перистые, Cs - перисто-слоистые, Cc - перисто-кучевые, Ac - высококучевые, As - высокослоистые, Sc - слоисто-кучевые, Ns - слоисто-дождевые, Cu - кучевые, Cb - кучево-дождевые. Подробнее классификацию облаков см. в Атласе облаков (PDF).
T - Температура воздуха - температура, измеренная на высоте 2 м над землей.
Td - Температура точки росы - температура, при понижении до которой содержащийся в воздухе водяной пар достигнет насыщения.
f - Относительная влажность воздуха - влажноcть воздуха, измеренная на высоте 2 м над землей.
Te - Эффективная температура - температура, которую ощущает одетый по сезону человек в тени. Характеристика душности погоды. При расчете учитывается влияние влажности воздуха и скорости ветра на теплоощущения человека.
Tes - Эффективная температура на солнце - температура, которую ощущает человек, с поправкой на солнечный нагрев. Характеристика знойности погоды. Зависит от высоты солнца над горизонтом, облачности и скорости ветра. Ночью, в пасмурную погоду, а также при ветре 12 м/с и более поправка равна нулю.
P - Атмосферное давление - приведенное к уровню моря атмосферное давление.
Po - Атмосферное давление - измеренное на уровне метеостанции атмосферное давление.
Tmin - Минимальная температура - минимум температуры воздуха на высоте 2 м над землей.
Tmax - Максимальная температура - максимум температуры воздуха на высоте 2 м над землей.
R - Количество осадков - Количество выпавших осадков за период времени, мм. При наведении курсора мыши на число - период времени, за который выпало указанное количество осадков.
R24 - Количество осадков - Количество выпавших осадков за 24 часа, мм.
S - Снежный покров - Высота снежного покрова, см. При наведении курсора мыши на число - состояние снежного покрова и степень покрытия местности в баллах.